Back to catalog

ATLAS 5 CENTAUR DEB

AliveHEO
NORAD 44896·DEBRIS·🇺🇸 United States

Launched Oct 17, 2018 from Cape Canaveral Space Force Station

Loading…

Next Passes (next 24 hours)

TLE

AgingSource: Space-Track

Epoch: Aug 28, 2026, 21:38 UTC

1 44896U 18079BK  26240.90150107 -.00000082  00000-0  00000-0 0  9994
2 44896  13.4465 337.0674 4626316  76.1624 329.6406  2.00757123 49167

Track ATLAS 5 CENTAUR DEB in real time with AllMySat

Download on the App Store